Terminal Aerodrome Forecast
Issued by NWS Charleston, WV

Current Version | Previous Version | Graphics & Text | Print | Product List | Glossary On
Versions: 1 2 3 4 5 6 7 8 9 10 11 12 13 14 15 16 17 18 19 20 21 22 23 24 25 26 27 28 29 30
114
FTUS41 KRLX 302108 AAA
TAFCRW
TAF AMD
KCRW 302108Z 3021/0118 26005KT P6SM VCSH BKN011 OVC017
     FM010400 VRB02KT 3SM BR SCT015
     FM010700 VRB02KT 1SM BR SCT001=

USA.gov is the U.S. government's official web portal to all federal, state and local government web resources and services.